Wind_Speed
17 17 18 17 18 17 15 14 14 14 13 12 11 10 10 9 9 8 7 6 6 5 5 5 5 5 7 7 7 8 8 8 10 10 9 10 12 13 15 15 14 16
18 18 17 17 16 16 17 15 14 14 12 10 11 11 10 10 10 9 7 5 4 4 5 5 4 4 5 6 7 9 9 7 9 9 9 12 14 14 14 14 13 13
18 17 17 16 15 16 16 15 13 14 13 13 13 12 9 8 9 9 8 7 5 5 5 5 4 4 4 4 5 7 7 7 9 8 9 11 13 12 13 14 14 12
18 17 17 16 16 16 16 16 16 16 15 14 12 10 8 8 8 8 9 10 9 8 7 5 5 5 4 3 4 5 5 7 10 9 9 10 10 11 13 13 14 13
19 17 17 16 16 17 17 17 17 16 15 12 9 7 6 6 7 7 9 11 11 9 7 6 5 4 4 4 4 5 4 5 8 8 10 12 10 9 11 12 13 14
21 19 18 17 17 17 18 17 16 15 14 11 8 7 5 6 7 7 7 8 7 6 5 5 5 4 4 3 3 5 4 4 6 7 10 12 10 9 9 10 12 13
23 22 20 18 18 17 16 16 15 14 13 11 9 7 6 8 8 6 6 6 5 5 4 3 4 4 5 4 3 5 5 5 6 6 8 9 9 8 8 10 11 12
24 24 23 20 19 18 17 17 16 15 13 12 10 8 7 8 8 7 8 6 6 6 5 5 5 4 5 6 5 4 6 6 6 7 8 8 9 9 8 9 11 13
26 25 25 23 21 20 19 18 17 15 14 12 11 10 9 7 6 7 9 7 6 7 6 7 7 4 4 6 5 5 6 6 6 8 8 8 9 9 7 10 12 14
30 26 25 25 25 22 19 18 17 16 14 12 11 11 10 8 6 7 9 8 7 6 5 6 6 5 7 7 6 6 6 6 7 7 6 7 10 9 7 8 12 14
32 28 25 26 25 22 20 18 17 16 14 12 11 11 10 8 7 8 8 7 8 6 4 5 6 8 9 8 8 7 6 6 7 7 8 8 9 10 7 6 8 12
30 28 26 26 24 23 21 18 17 16 15 13 12 10 9 8 8 8 6 6 7 7 6 7 7 8 8 8 10 10 8 7 6 7 8 8 7 9 9 7 5 6
27 27 27 26 24 24 23 19 17 17 15 14 13 11 10 10 9 9 7 6 7 7 7 8 8 8 8 8 10 11 11 10 8 6 7 7 7 6 6 5 4 4
27 26 27 27 26 26 24 20 19 18 16 15 14 12 11 10 10 10 10 9 9 8 8 10 8 7 8 8 9 10 11 11 11 9 7 9 9 7 6 7 6 5
30 28 28 28 27 26 24 22 20 19 17 15 14 14 12 11 11 11 10 10 12 10 8 10 10 7 8 9 8 8 8 8 10 9 8 8 7 5 8 8 6 5
33 31 29 28 27 26 25 22 20 19 18 15 14 14 13 12 12 12 10 10 12 11 9 10 11 8 7 9 9 8 6 6 6 7 7 8 6 4 6 5 4 5
31 30 29 28 27 26 25 23 21 20 18 16 15 16 14 13 13 13 11 11 11 10 10 10 10 10 9 8 9 9 7 8 7 5 6 7 4 3 5 4 4 4
28 30 29 28 28 28 27 26 25 22 20 19 18 17 16 14 14 14 13 13 11 8 8 9 9 11 11 10 10 9 9 10 9 6 6 7 5 4 5 5 6 6
29 30 31 31 31 31 30 30 28 26 25 24 22 20 19 16 15 14 12 13 12 7 5 6 8 10 11 12 12 11 11 10 7 6 6 7 7 6 5 7 9 7
32 33 35 35 34 33 33 31 30 29 27 26 23 22 21 17 13 11 10 11 11 7 4 4 6 7 8 10 11 12 12 11 8 7 8 8 9 8 6 8 11 10
35 36 36 35 33 33 33 31 30 30 27 24 21 19 17 13 9 8 9 9 8 7 5 6 6 5 6 7 8 9 11 12 10 10 9 7 8 8 6 6 9 8
35 37 35 34 34 33 33 31 30 28 24 22 20 17 14 11 10 9 9 8 8 7 7 7 6 6 6 6 7 8 10 11 8 6 7 6 6 6 5 5 7 8
31 33 33 33 33 32 31 29 26 22 20 19 18 16 13 12 12 12 11 10 10 9 9 8 8 8 7 7 8 8 9 9 6 3 3 3 2 3 4 4 5 6
28 28 29 30 29 28 26 24 21 18 17 16 15 14 12 11 11 12 12 11 10 10 10 9 9 10 9 9 10 9 9 10 10 7 5 5 6 3 2 3 4 5
22 21 22 21 20 18 17 18 17 17 16 15 14 13 11 10 11 11 11 11 10 10 10 9 9 10 10 10 11 11 11 11 11 11 10 11 10 6 2 1 4 6
13 11 11 11 10 9 10 13 15 16 16 16 14 12 10 11 12 11 11 10 10 9 9 8 8 8 8 9 10 11 12 12 13 12 11 11 12 8 3 1 5 7
Wind_Direction
167 165 163 155 150 155 153 153 162 166 172 180 179 187 193 190 191 197 199 193 184 184 186 187 192 198 194 187 190 186 179 178 175 176 189 191 178 174 179 182 185 192
168 166 162 153 152 155 153 160 169 164 166 168 168 183 194 191 190 198 204 191 182 188 176 174 186 197 192 176 182 185 176 181 187 177 177 183 174 169 182 191 188 188
171 166 159 154 159 161 156 159 162 159 165 171 179 190 191 185 185 195 196 164 158 202 191 174 177 177 178 159 166 180 171 175 187 175 162 176 183 177 182 196 196 192
173 168 165 168 172 169 161 162 165 169 176 182 189 192 183 181 180 189 191 167 168 203 202 178 165 158 162 144 139 159 167 166 167 167 162 168 183 180 178 188 192 194
170 172 176 179 176 169 166 170 175 180 183 185 187 182 180 181 169 172 184 177 182 200 197 176 164 155 157 154 144 145 156 158 149 154 163 162 166 172 176 181 184 190
165 171 178 182 179 173 172 175 180 182 182 182 178 173 172 161 156 164 169 172 181 178 168 164 157 152 152 155 153 140 143 158 150 153 162 162 164 167 171 175 178 186
166 169 176 183 183 177 174 174 179 183 182 177 170 170 164 149 151 159 151 149 150 134 132 143 144 152 151 144 145 139 140 155 157 158 160 161 164 163 163 169 176 184
168 172 175 176 175 172 172 174 179 182 178 174 168 160 145 142 156 159 145 139 139 140 144 139 136 162 162 148 151 145 138 149 155 148 152 160 159 153 157 167 175 184
166 174 178 172 168 174 174 174 179 179 173 174 170 153 143 158 176 150 134 137 143 149 154 146 146 170 155 135 138 137 130 144 149 137 144 157 149 145 159 170 174 180
164 173 182 175 170 176 175 174 180 175 170 174 168 154 153 169 167 132 134 147 143 139 143 142 142 126 109 108 114 115 114 125 131 138 151 151 147 158 167 164 171 177
166 171 180 177 174 176 175 178 179 171 168 168 158 158 163 161 146 136 147 151 137 125 96 91 109 110 111 120 118 109 114 124 126 134 136 125 138 160 147 116 154 179
168 171 176 178 178 178 177 180 176 169 168 160 154 166 164 146 138 139 148 144 125 114 94 94 112 121 125 134 128 119 118 127 130 122 115 108 120 150 143 106 105 165
170 174 176 176 177 179 178 175 170 168 164 155 162 174 156 141 146 145 143 135 121 128 145 148 145 143 143 138 134 136 132 132 137 121 123 139 132 139 163 150 118 140
176 179 178 174 177 180 175 170 171 169 161 160 169 167 147 144 152 145 138 138 146 164 175 171 167 160 154 144 139 148 148 144 140 126 131 151 136 111 125 134 139 165
177 180 179 176 180 178 170 171 173 163 159 169 168 153 146 151 151 141 136 151 172 185 183 179 182 172 154 154 153 152 150 151 149 137 132 144 147 133 121 124 148 176
179 181 180 177 178 173 169 172 167 159 166 173 158 148 149 150 144 138 143 168 185 190 190 192 196 190 170 164 164 154 139 135 147 152 145 141 151 156 131 134 182 196
180 183 183 177 172 168 166 164 160 162 171 163 148 148 147 141 141 145 158 183 196 196 199 204 205 205 198 182 172 165 148 129 124 136 148 140 136 149 147 159 201 208
181 181 180 174 168 165 163 163 163 165 163 156 153 151 142 142 155 161 170 189 197 197 206 213 214 212 209 202 192 179 163 146 127 123 146 147 143 161 167 176 201 211
180 177 174 170 166 166 166 167 168 165 161 160 157 150 148 158 172 176 183 194 199 204 214 210 208 207 205 207 206 196 185 173 139 120 150 160 162 177 170 156 165 170
172 170 170 170 170 170 171 170 170 168 168 167 162 157 163 171 181 188 190 192 198 206 198 176 179 188 190 196 202 200 197 193 172 149 154 160 169 188 195 167 156 150
166 166 168 171 172 172 172 172 172 171 171 172 168 167 172 177 186 191 184 180 185 186 175 165 163 168 169 172 180 182 185 188 181 164 161 168 175 185 199 187 172 167
165 168 169 169 170 172 173 172 172 173 174 176 177 178 181 185 188 185 178 175 177 181 182 178 174 174 169 162 159 158 169 177 172 161 173 188 183 175 183 195 199 207
163 165 164 162 165 170 172 173 175 179 182 185 188 190 191 195 198 198 195 189 185 190 194 191 188 185 181 177 167 160 167 166 144 134 191 186 120 139 179 200 212 223
154 157 157 159 163 166 170 175 181 187 190 192 196 197 195 197 203 205 204 199 195 197 199 199 199 195 190 188 182 176 180 172 148 138 157 139 100 93 211 228 238 249
138 144 146 151 157 159 164 174 183 188 189 189 191 192 190 192 199 205 205 201 197 196 197 201 204 203 200 199 194 190 194 192 179 172 175 165 145 127 114 276 270 270
116 126 130 135 144 155 163 169 175 180 183 185 188 191 191 189 193 196 195 194 191 188 191 197 203 208 207 206 208 206 203 202 202 199 197 192 183 168 144 271 261 258
Height
1510 1511 1513 1515 1517 1519 1522 1523 1525 1527 1529 1530 1531 1531 1531 1531 1532 1533 1534 1535 1536 1537 1539 1540 1540 1541 1542 1542 1544 1544 1545 1545 1546 1548 1550 1551 1552 1553 1553 1554 1555 1555
1510 1512 1513 1515 1517 1519 1521 1523 1525 1527 1528 1530 1530 1530 1530 1531 1532 1532 1533 1534 1536 1537 1538 1539 1540 1540 1541 1542 1543 1544 1545 1545 1546 1548 1550 1551 1552 1553 1554 1554 1555 1555
1510 1512 1514 1515 1516 1518 1520 1523 1525 1527 1528 1529 1529 1530 1530 1531 1532 1532 1533 1534 1536 1536 1537 1538 1539 1540 1540 1541 1542 1543 1544 1545 1546 1548 1550 1551 1551 1552 1553 1554 1555 1556
1509 1512 1514 1515 1516 1518 1520 1522 1525 1526 1527 1528 1528 1529 1530 1531 1532 1532 1533 1534 1535 1535 1536 1538 1539 1539 1540 1541 1542 1543 1544 1545 1546 1548 1549 1550 1550 1551 1552 1553 1554 1555
1508 1512 1514 1516 1517 1518 1520 1522 1524 1525 1526 1528 1528 1529 1530 1530 1531 1532 1533 1534 1534 1535 1536 1537 1538 1539 1540 1541 1542 1543 1544 1544 1546 1547 1548 1549 1550 1551 1551 1552 1553 1555
1507 1511 1514 1516 1517 1519 1520 1522 1523 1525 1526 1527 1528 1529 1530 1530 1531 1532 1533 1533 1534 1535 1536 1537 1538 1539 1540 1541 1542 1543 1543 1544 1545 1547 1548 1548 1549 1550 1551 1551 1553 1554
1505 1509 1513 1516 1518 1520 1521 1522 1523 1524 1526 1527 1528 1529 1530 1531 1531 1532 1532 1533 1534 1535 1536 1537 1538 1538 1539 1540 1541 1542 1543 1544 1545 1546 1547 1548 1549 1550 1551 1551 1553 1554
1503 1507 1512 1516 1519 1521 1522 1523 1524 1524 1526 1527 1528 1529 1530 1531 1531 1531 1532 1533 1534 1535 1536 1537 1538 1538 1539 1540 1541 1542 1542 1543 1544 1545 1547 1548 1549 1550 1551 1552 1553 1554
1502 1505 1510 1515 1519 1521 1522 1523 1524 1524 1526 1527 1527 1529 1530 1530 1531 1531 1532 1533 1534 1535 1535 1536 1537 1538 1538 1540 1540 1541 1542 1543 1544 1545 1546 1548 1549 1550 1551 1552 1553 1553
1499 1503 1508 1513 1517 1520 1521 1523 1523 1524 1525 1526 1527 1528 1529 1530 1530 1530 1531 1532 1533 1534 1534 1535 1536 1537 1538 1539 1540 1541 1542 1543 1544 1545 1546 1547 1548 1550 1551 1552 1552 1553
1495 1500 1505 1510 1514 1517 1519 1521 1522 1523 1525 1526 1526 1527 1528 1529 1529 1530 1531 1532 1532 1533 1534 1534 1535 1536 1538 1539 1540 1541 1542 1543 1544 1545 1546 1547 1548 1550 1550 1551 1552 1553
1494 1497 1502 1507 1511 1514 1517 1520 1521 1523 1524 1525 1526 1526 1527 1528 1529 1530 1531 1531 1532 1533 1533 1534 1535 1536 1537 1538 1540 1541 1542 1543 1544 1545 1546 1547 1549 1550 1550 1551 1552 1552
1495 1497 1501 1505 1509 1512 1516 1519 1521 1522 1523 1524 1525 1526 1527 1528 1529 1530 1531 1532 1533 1533 1533 1533 1534 1535 1537 1538 1539 1540 1541 1542 1543 1544 1546 1547 1549 1550 1550 1551 1552 1552
1494 1498 1502 1505 1508 1511 1514 1518 1519 1521 1523 1523 1524 1525 1526 1528 1529 1529 1531 1532 1532 1531 1531 1532 1534 1535 1536 1537 1538 1539 1540 1541 1542 1544 1545 1547 1548 1549 1550 1551 1552 1553
1492 1497 1501 1504 1507 1510 1513 1516 1518 1520 1522 1523 1523 1524 1526 1527 1528 1529 1530 1530 1530 1530 1531 1532 1533 1535 1536 1537 1538 1539 1540 1541 1542 1544 1545 1546 1548 1548 1550 1551 1552 1553
1490 1494 1500 1502 1505 1508 1511 1514 1517 1519 1521 1522 1522 1523 1525 1526 1527 1529 1529 1529 1529 1530 1531 1532 1533 1534 1535 1537 1538 1539 1540 1541 1542 1543 1545 1546 1548 1549 1550 1552 1552 1553
1490 1493 1498 1501 1504 1507 1510 1513 1516 1518 1520 1522 1522 1523 1524 1526 1527 1528 1527 1527 1528 1530 1531 1532 1533 1534 1535 1536 1538 1539 1540 1541 1542 1543 1544 1546 1548 1549 1550 1552 1552 1553
1492 1493 1499 1501 1503 1505 1509 1511 1514 1517 1519 1521 1522 1522 1524 1525 1526 1526 1526 1526 1528 1529 1530 1531 1533 1534 1535 1536 1537 1539 1540 1541 1542 1543 1544 1546 1548 1549 1550 1551 1552 1553
1493 1496 1499 1501 1501 1503 1507 1510 1513 1515 1517 1519 1520 1521 1523 1524 1524 1525 1526 1526 1528 1529 1530 1531 1532 1533 1535 1536 1537 1538 1540 1541 1542 1543 1544 1546 1547 1548 1549 1550 1551 1552
1493 1496 1497 1498 1500 1502 1506 1509 1512 1514 1516 1517 1518 1519 1520 1522 1523 1525 1525 1526 1527 1529 1530 1531 1532 1533 1534 1535 1536 1538 1539 1541 1541 1542 1544 1545 1545 1546 1547 1549 1550 1551
1491 1493 1495 1497 1500 1503 1505 1508 1511 1513 1515 1516 1517 1518 1520 1521 1523 1524 1525 1526 1527 1528 1530 1531 1532 1533 1534 1535 1536 1537 1539 1540 1541 1542 1543 1544 1545 1546 1547 1548 1549 1549
1491 1492 1494 1496 1500 1503 1505 1508 1511 1512 1514 1515 1516 1518 1519 1520 1521 1523 1524 1526 1527 1528 1530 1531 1532 1533 1534 1535 1536 1537 1538 1539 1541 1542 1543 1543 1545 1546 1547 1548 1548 1548
1491 1493 1494 1496 1499 1503 1505 1508 1510 1511 1513 1514 1516 1517 1517 1518 1520 1522 1524 1525 1526 1528 1530 1531 1532 1533 1535 1536 1537 1537 1538 1540 1541 1542 1543 1544 1545 1546 1546 1547 1547 1548
1492 1494 1496 1498 1500 1503 1505 1507 1509 1511 1512 1513 1515 1516 1517 1518 1520 1522 1524 1525 1526 1528 1530 1531 1532 1533 1534 1536 1536 1537 1539 1539 1540 1541 1542 1544 1545 1545 1545 1546 1546 1547
1495 1496 1498 1499 1501 1504 1506 1508 1509 1510 1511 1513 1514 1515 1517 1519 1520 1522 1524 1525 1527 1528 1529 1531 1532 1533 1534 1535 1536 1537 1538 1539 1540 1540 1541 1542 1544 1544 1544 1545 1545 1545
1498 1499 1500 1501 1503 1505 1507 1509 1510 1510 1511 1512 1514 1515 1517 1519 1521 1522 1523 1525 1526 1528 1529 1530 1531 1533 1534 1535 1535 1536 1537 1538 1539 1540 1540 1542 1543 1543 1543 1543 1543 1543